Location: Newark
(48.9320°N, 2.2664°E)
Time: 15:30:20
(UTC+00:00)

Vanguard 1 Rocket - Pass Details

Date: 18 February 2020
Orbit: 650 x 4227 km, 34.3° (Epoch: 30 March)

Event Time Altitude Azimuth Distance (km) Brightness Sun altitude
Rises 05:39:50 0° 240° (WSW) 3,133 - -13.0°
Exits shadow 05:42:06 - 226° (SW) 2,385 9.2 -12.6°
Reaches altitude 10° 05:43:23 10° 213° (SSW) 2,059 9.0 -12.4°
Maximum altitude 05:45:36 14° 182° (S) 1,817 9.0 -12.0°
Drops below altitude 10° 05:47:51 10° 151° (SSE) 2,094 9.7 -11.7°
Sets 05:51:32 0° 125° (SE) 3,232 11.4 -11.1°
